Regional Weather Roundup
Issued by NWS

Home | Current Version | Previous Version | Graphics & Text | Print | Product List | Glossary On
Versions: 1 2 3 4 5 6 7 8 9 10 11 12 13 14 15 16 17 18 19 20 21 22 23 24 25 26 27 28 29 30 31 32 33 34 35 36 37 38 39 40 41 42 43 44 45 46 47 48 49 50
000
ASUS43 KBIS 180559
RWRND

NORTH DAKOTA REGIONAL WEATHER ROUNDUP
NATIONAL WEATHER SERVICE BISMARCK ND
1200 AM CST THU DEC 18 2014

NOTE: "FAIR" INDICATES FEW OR NO CLOUDS BELOW 12,000 FEET WITH NO
SIGNIFICANT WEATHER AND/OR OBSTRUCTIONS TO VISIBILITY.


NDZ001>003-009>011-017-180700-
NORTHWEST NORTH DAKOTA

CITY           SKY/WX    TMP DP  RH WIND       PRES   REMARKS
WILLISTON      CLOUDY    20  14  77 S8        30.06S WCI  10
6HR MIN TEMP:  20; 6HR MAX TEMP:  20;

MINOT          PTCLDY     5   1  83 E5        30.14S WCI  -4
$$

NDZ018>021-031>035-040>046-180700-
SOUTHWEST NORTH DAKOTA

CITY           SKY/WX    TMP DP  RH WIND       PRES   REMARKS
BISMARCK       CLOUDY    17  12  80 SE10      30.17S WCI   5
6HR MIN TEMP:  12; 6HR MAX TEMP:  17;

DICKINSON      CLOUDY    19  15  84 S12       30.02S WCI   7
GARRISON         N/A     13  10  88 E7        30.12S WCI   3
6HR MIN TEMP:   9; 6HR MAX TEMP:  13;

HETTINGER ARPT CLOUDY    18  15  88 SE10      30.04S FOG     WCI   6
$$

NDZ004>008-012>016-024-026-027-054-180700-
NORTHEAST NORTH DAKOTA

CITY           SKY/WX    TMP DP  RH WIND       PRES   REMARKS
GRAND FORKS    PTCLDY     7   5  91 E5        30.31F WCI  -2
DEVILS LAKE    CLEAR      7  -2  66 SE5       30.20F WCI  -2
$$

NDZ022-023-025-028>030-036>039-047>053-180700-
SOUTHEAST NORTH DAKOTA

CITY           SKY/WX    TMP DP  RH WIND       PRES   REMARKS
FARGO          PTCLDY     8   5  87 E5        30.31S WCI   0
6HR MIN TEMP:   8; 6HR MAX TEMP:  14;

JAMESTOWN      PTCLDY     4   1  88 SE5       30.22F WCI  -5
$$



USA.gov is the U.S. government's official web portal to all federal, state and local government web resources and services.